Weather in Prokudino

Russia / Kaluga Oblast     54°39′03″N   35°45′53″E
В апреле 2022 года жителям России запретили посещать сайт meteo.paraplan.net по решению Генеральной прокуратуры. Аудитория сайта уменьшилась в 10 раз. Владельцы сайта не видят смысла в поддержке погодного сервера в таких условиях. Сайт будет закрыт в октябре.
temp.,
°C
wind,
m/s
gust,
m/s
humid.,
%
clouds,
%
prec.,
mm/h
press.,
hPa
HPBL,
m
30 september, fri
fri3000:00+8sse269079 0.0 1013130
03:00+7sse299572 0.0 1014197
06:00+8sse3109698 0.0 1013214
09:00+11s3989100 0.1 1014311
12:00+15s487797 0.1 1014607
15:00+16ssw457875 0.3 1014781
18:00+13sse259296 0.0 1015120
21:00+13s2494100 0.0 1016134
1 october, sat
sat100:00+12wnw1298100 0.1 101673
03:00+12nne1397100 0.1 101690
06:00+12ene1298100 0.1 101676
09:00+13ese2393100 0.1 1015228
12:00+17sse3576100 0.0 1013730
15:00+18sse3677100 0.8 1010476
18:00+15ssw41185100 2.1 1008594
21:00+12sw5129197 2.1 1008713
2 october, sun
sun200:00+10wsw61182100 0.1 10091028
03:00+9wsw61185100 0.1 1008960
06:00+8wsw4108982 0.0 1009730
09:00+9wsw488671 0.0 1009545
12:00+12wsw3465100 0.0 10091189
15:00+12wnw1166100 0.0 1008810
18:00+10nne2478100 0.0 1007148
21:00+9ne3887100 0.2 1005422
3 october, mon
mon300:00+8nne61196100 6.6 1002655
03:00+8nne61296100 19.1 998721
06:00+8nnw4897100 7.6 996500
09:00+8nw4996100 9.7 995425
12:00+8wnw4995100 2.8 995560
15:00+7w51094100 3.8 997747
18:00+7wsw5894100 0.2 10001017
21:00+6sw4795100 0.8 10021033
4 october, tue
tue400:00+6sw4895100 1.4 10041085
03:00+6ssw4119358 2.1 1006568
06:00+5s4119548 0.0 1007345
09:00+7s4119198 0.0 1009478
12:00+9ssw5986100 0.1 1010847
15:00+10s51086100 0.5 10111075
18:00+9s498897 0.1 1013577
21:00+8s31094100 0.3 1014452